FW9412 Weather Reports


Display with metric or nautical units.
time (UTC)temp
F
wind
direction
speed
MPH
gust
MPH
rain 1hr
in
rain 24hr
in
rain mn
in
humidity
%
barometer
mb
20260831022418 63 176 0.0 0.0 0.00 0.00 0.00 96 1020.3
20260831021917 63 171 0.0 0.0 0.00 0.00 0.00 96 1020.3
20260831021412 64 176 0.0 0.0 0.00 0.00 0.00 96 1020.2
20260831020908 64 175 0.0 0.0 0.00 0.00 0.00 96 1020.2
20260831020407 64 175 0.0 0.0 0.00 0.00 0.00 96 1020.1
20260831015902 64 177 0.0 0.0 0.00 0.00 0.00 96 1020.2
20260831015358 64 172 0.0 0.0 0.00 0.00 0.00 96 1020.2
20260831014853 64 173 0.0 0.0 0.00 0.00 0.00 96 1020.3
20260831014347 64 175 0.0 0.0 0.00 0.00 0.00 96 1020.7
20260831013843 64 170 0.0 0.0 0.00 0.00 0.00 96 1020.4
20260831013338 64 170 0.0 0.0 0.00 0.00 0.00 96 1020.4
20260831012832 64 175 0.0 0.0 0.00 0.00 0.00 96 1020.6
20260831012328 64 176 0.0 0.0 0.00 0.00 0.00 96 1020.4
20260831011827 64 172 0.0 0.0 0.00 0.00 0.00 96 1020.2
20260831011322 64 168 0.0 0.0 0.00 0.00 0.00 96 1020.4
20260831010813 64 168 0.0 0.0 0.00 0.00 0.00 96 1020.2
20260831010312 64 169 0.0 0.0 0.00 0.00 0.00 96 1020.4
20260831005808 64 168 0.0 0.0 0.00 0.00 0.00 96 1020.1
20260831005306 64 166 0.0 0.0 0.00 0.00 0.00 96 1020.3
20260831004758 64 167 0.0 0.0 0.00 0.00 0.00 96 1020.2
20260831004254 64 169 0.0 0.0 0.00 0.00 0.00 96 1020.1
20260831003749 64 167 0.0 0.0 0.00 0.00 0.00 96 1020.2
20260831003245 65 172 0.0 0.0 0.00 0.00 0.00 96 1020.1
20260831002744 65 172 0.0 0.0 0.00 0.00 0.00 96 1019.4
20260831002239 65 169 0.0 0.0 0.00 0.00 0.00 96 1019.6
20260831001735 65 169 0.0 0.0 0.00 0.00 0.00 96 1019.7
20260831001230 65 169 0.0 0.0 0.00 0.00 0.00 96 1019.6
20260831000727 65 168 0.0 0.0 0.00 0.00 0.00 96 1019.6
20260831000222 65 167 0.0 0.0 0.00 0.00 0.00 96 1019.4
20260830235721 65 168 0.0 0.0 0.00 0.00 0.00 96 1019.3
20260830235216 65 169 0.0 0.0 0.00 0.00 0.00 96 1019.3
20260830234710 65 173 0.0 0.0 0.00 0.00 0.00 96 1019.2
20260830234207 65 172 0.0 0.0 0.00 0.00 0.00 96 1019.2
20260830233702 65 179 0.0 0.0 0.00 0.00 0.00 96 1019.1
20260830233157 65 172 0.0 0.0 0.00 0.00 0.00 96 1019.1
20260830232653 65 171 0.0 0.0 0.00 0.00 0.00 96 1019.1
20260830232148 65 169 0.0 0.0 0.00 0.00 0.00 96 1019.2
20260830231645 65 173 0.0 0.0 0.00 0.00 0.00 96 1019.2
20260830231144 65 172 0.0 0.0 0.00 0.00 0.00 96 1019.2
20260830230639 65 168 0.0 0.0 0.00 0.00 0.00 96 1019.1
20260830230139 65 167 0.0 0.0 0.00 0.00 0.00 96 1019.2
20260830225634 65 171 0.0 0.0 0.00 0.00 0.00 96 1019.4
20260830225129 65 170 0.0 0.0 0.00 0.00 0.00 96 1019.2
20260830224628 65 167 0.0 0.0 0.00 0.00 0.00 96 1019.1
20260830224124 65 174 0.0 0.0 0.00 0.00 0.00 96 1019.2
20260830223621 65 185 0.0 0.0 0.00 0.00 0.00 96 1019.2
20260830223120 65 173 0.0 0.0 0.00 0.00 0.00 96 1019.2
20260830222614 65 182 0.0 0.0 0.00 0.00 0.00 96 1019.0
20260830222111 65 171 0.0 0.0 0.00 0.00 0.00 96 1019.3
20260830221606 65 181 1.0 1.0 0.00 0.00 0.00 96 1019.1
20260830221102 64 174 1.0 1.0 0.00 0.00 0.00 96 1019.1
20260830220557 64 170 0.0 1.0 0.00 0.00 0.00 96 1019.2
20260830220055 64 182 0.0 0.0 0.00 0.00 0.00 96 1019.3
20260830215549 64 175 0.0 0.0 0.00 0.00 0.00 96 1019.0
20260830215044 64 170 0.0 0.0 0.00 0.00 0.00 96 1019.3
20260830214539 64 174 0.0 0.0 0.00 0.00 0.00 96 1019.1
20260830214033 64 174 0.0 0.0 0.00 0.00 0.00 96 1018.9
20260830213528 64 170 0.0 0.0 0.00 0.00 0.00 96 1018.8
20260830213023 64 173 0.0 0.0 0.00 0.00 0.00 96 1019.0
20260830212519 64 171 0.0 0.0 0.00 0.00 0.00 96 1018.8
20260830212014 64 167 0.0 0.0 0.00 0.00 0.00 96 1019.1
20260830211509 64 169 0.0 0.0 0.00 0.00 0.00 96 1019.1
20260830211003 64 172 0.0 0.0 0.00 0.00 0.00 96 1019.1
20260830210503 64 169 0.0 0.0 0.00 0.00 0.00 96 1019.0
20260830210002 64 170 0.0 0.0 0.00 0.00 0.00 96 1019.3
20260830205500 64 172 0.0 0.0 0.00 0.00 0.00 96 1019.3
20260830204956 64 167 0.0 0.0 0.00 0.00 0.00 96 1019.2
20260830204455 64 169 0.0 0.0 0.00 0.00 0.00 96 1019.3
20260830203949 64 172 0.0 0.0 0.00 0.00 0.00 96 1019.3
20260830203446 64 172 0.0 0.0 0.00 0.00 0.00 96 1019.3
20260830202945 64 169 0.0 0.0 0.00 0.00 0.00 96 1019.1
20260830202440 64 168 0.0 0.0 0.00 0.00 0.00 96 1019.0
20260830201931 64 169 0.0 0.0 0.00 0.00 0.00 96 1019.2
20260830201430 64 168 0.0 0.0 0.00 0.00 0.00 96 1019.4
20260830200926 64 167 0.0 0.0 0.00 0.00 0.00 96 1019.3
20260830200425 64 167 0.0 0.0 0.00 0.00 0.00 96 1019.4
20260830195925 64 166 0.0 0.0 0.00 0.00 0.00 96 1019.3
20260830195421 64 166 0.0 0.0 0.00 0.00 0.00 95 1019.5
20260830194919 64 165 0.0 0.0 0.00 0.00 0.00 95 1019.4
20260830194418 64 165 0.0 0.0 0.00 0.00 0.00 95 1019.4
20260830193913 64 165 0.0 0.0 0.00 0.00 0.00 95 1019.3
20260830193412 64 165 0.0 0.0 0.00 0.00 0.00 95 1019.3
20260830192907 64 164 0.0 0.0 0.00 0.00 0.00 95 1019.4
20260830192402 64 166 0.0 0.0 0.00 0.00 0.00 95 1019.3
20260830191857 64 168 0.0 0.0 0.00 0.00 0.00 95 1019.4
20260830191357 64 166 0.0 0.0 0.00 0.00 0.00 95 1019.6
20260830190853 64 169 0.0 0.0 0.00 0.00 0.00 95 1019.9
20260830190348 64 167 0.0 0.0 0.00 0.00 0.00 95 1019.6
20260830185846 64 167 0.0 0.0 0.00 0.00 0.00 94 1020.0
20260830185342 64 173 0.0 0.0 0.00 0.00 0.00 93 1019.9
20260830184836 64 176 0.0 0.0 0.00 0.00 0.00 93 1020.0
20260830184331 65 179 0.0 0.0 0.00 0.00 0.00 92 1020.2
20260830183830 65 175 0.0 0.0 0.00 0.00 0.00 90 1020.1
20260830183325 66 180 0.0 0.0 0.00 0.00 0.00 88 1020.1
20260830182821 66 175 0.0 0.0 0.00 0.00 0.00 87 1020.1
20260830182316 67 184 0.0 0.0 0.00 0.00 0.00 85 1020.1
20260830181813 67 195 0.0 0.0 0.00 0.00 0.00 84 1020.1
20260830181308 67 174 0.0 0.0 0.00 0.00 0.00 84 1020.0
20260830180807 68 193 0.0 0.0 0.00 0.00 0.00 82 1020.1
20260830180301 68 202 0.0 0.0 0.00 0.00 0.00 80 1020.0
20260830175755 68 177 0.0 0.0 0.00 0.00 0.00 80 1019.8
20260830175251 68 179 0.0 0.0 0.00 0.00 0.00 78 1019.6
20260830174750 68 176 0.0 0.0 0.00 0.00 0.00 78 1019.9
20260830174246 68 174 0.0 0.0 0.00 0.00 0.00 77 1020.1
20260830173745 69 166 0.0 0.0 0.00 0.00 0.00 77 1019.6
20260830173241 69 170 0.0 0.0 0.00 0.00 0.00 77 1019.7
20260830172738 69 181 0.0 0.0 0.00 0.00 0.00 75 1019.7
20260830172234 70 175 0.0 0.0 0.00 0.00 0.00 74 1019.8
20260830171729 70 172 0.0 0.0 0.00 0.00 0.00 73 1019.7
20260830171224 70 188 0.0 0.0 0.00 0.00 0.00 72 1019.7
20260830170719 70 184 1.0 1.0 0.00 0.00 0.00 73 1019.7
20260830170218 70 193 1.0 2.0 0.00 0.00 0.00 74 1019.8
20260830165718 70 174 0.0 0.0 0.00 0.00 0.00 73 1019.6
20260830165214 70 172 0.0 0.0 0.00 0.00 0.00 74 1019.7
20260830164710 70 173 0.0 0.0 0.00 0.00 0.00 74 1019.6
20260830164205 70 167 0.0 0.0 0.00 0.00 0.00 74 1019.7
20260830163702 70 167 0.0 0.0 0.00 0.00 0.00 73 1019.6
20260830163157 70 170 0.0 0.0 0.00 0.00 0.00 73 1019.8
20260830162652 70 163 0.0 0.0 0.00 0.00 0.00 73 1019.7
20260830162148 70 178 0.0 0.0 0.00 0.00 0.00 73 1019.8
20260830161642 70 176 0.0 0.0 0.00 0.00 0.00 73 1020.1
20260830161137 70 176 0.0 0.0 0.00 0.00 0.00 74 1019.9
20260830160633 70 174 0.0 0.0 0.00 0.00 0.00 72 1019.7
20260830160127 70 166 0.0 0.0 0.00 0.00 0.00 72 1019.9
20260830155624 70 181 0.0 0.0 0.00 0.00 0.00 72 1019.7
20260830155120 70 178 0.0 0.0 0.00 0.00 0.00 73 1019.9
20260830154614 70 178 0.0 0.0 0.00 0.00 0.00 73 1020.0
20260830154111 70 174 0.0 0.0 0.00 0.00 0.00 74 1019.8
20260830153606 70 174 1.0 1.0 0.00 0.00 0.00 73 1019.8
20260830153101 70 189 2.0 2.0 0.00 0.00 0.00 73 1019.8
20260830152600 70 175 0.0 0.0 0.00 0.00 0.00 74 1020.0
20260830152059 70 175 0.0 0.0 0.00 0.00 0.00 74 1019.9
20260830151554 70 175 0.0 0.0 0.00 0.00 0.00 73 1019.8
20260830151049 70 175 0.0 0.0 0.00 0.00 0.00 74 1020.2
20260830150549 70 172 0.0 0.0 0.00 0.00 0.00 73 1020.0
20260830150043 70 177 0.0 0.0 0.00 0.00 0.00 74 1020.0
20260830145537 70 177 0.0 0.0 0.00 0.00 0.00 74 1019.8
20260830145033 70 178 0.0 0.0 0.00 0.00 0.00 73 1019.8
20260830144528 70 181 0.0 0.0 0.00 0.00 0.00 72 1019.7
20260830144024 69 172 0.0 0.0 0.00 0.00 0.00 72 1019.7
20260830143520 69 171 0.0 0.0 0.00 0.00 0.00 73 1019.8
20260830143018 69 171 0.0 0.0 0.00 0.00 0.00 73 1019.7
20260830142513 69 174 0.0 0.0 0.00 0.00 0.00 72 1019.7
20260830142008 69 172 0.0 0.0 0.00 0.00 0.00 72 1019.7
20260830141503 69 165 0.0 0.0 0.00 0.00 0.00 73 1019.5
20260830140958 68 164 0.0 0.0 0.00 0.00 0.00 73 1019.5
20260830140453 68 161 0.0 0.0 0.00 0.00 0.00 77 1019.5
20260830135952 68 171 0.0 0.0 0.00 0.00 0.00 76 1019.4
20260830135448 68 173 0.0 0.0 0.00 0.00 0.00 75 1019.3
20260830134943 68 166 0.0 0.0 0.00 0.00 0.00 73 1019.5
20260830134439 68 172 0.0 0.0 0.00 0.00 0.00 73 1019.7
20260830133934 68 167 0.0 0.0 0.00 0.00 0.00 73 1019.8
20260830133430 68 186 2.0 2.0 0.00 0.00 0.00 73 1019.7
20260830132925 67 180 1.0 1.0 0.00 0.00 0.00 75 1019.5
20260830132421 68 173 1.0 2.0 0.00 0.00 0.00 75 1019.5
20260830131919 68 182 1.0 2.0 0.00 0.00 0.00 73 1019.8
20260830131414 68 180 0.0 0.0 0.00 0.00 0.00 73 1019.5
20260830130908 68 181 0.0 0.0 0.00 0.00 0.00 73 1019.7
20260830130404 68 180 2.0 2.0 0.00 0.00 0.00 73 1019.7
20260830125903 68 179 1.0 1.0 0.00 0.00 0.00 73 1019.5
20260830125359 68 179 1.0 1.0 0.00 0.00 0.00 72 1019.8
20260830124856 68 166 0.0 0.0 0.00 0.00 0.00 72 1019.8
20260830124351 68 175 1.0 1.0 0.00 0.00 0.00 72 1019.8
20260830123848 68 176 0.0 1.0 0.00 0.00 0.00 72 1019.6
20260830123344 68 180 0.0 0.0 0.00 0.00 0.00 72 1019.7
20260830122841 68 174 0.0 0.0 0.00 0.00 0.00 72 1020.0
20260830122337 68 176 0.0 0.0 0.00 0.00 0.00 72 1020.0
20260830121832 68 174 0.0 0.0 0.00 0.00 0.00 72 1020.1
20260830121331 67 168 0.0 0.0 0.00 0.00 0.00 71 1019.9
20260830120826 67 178 0.0 0.0 0.00 0.00 0.00 71 1020.0
20260830120322 67 178 0.0 0.0 0.00 0.00 0.00 71 1019.9
20260830115818 67 174 0.0 0.0 0.00 0.00 0.00 71 1019.8
20260830115315 67 186 0.0 0.0 0.00 0.00 0.00 71 1019.7
20260830114810 67 167 0.0 0.0 0.00 0.00 0.00 71 1019.9
20260830114306 67 179 0.0 0.0 0.00 0.00 0.00 71 1019.7
20260830113800 67 178 0.0 0.0 0.00 0.00 0.00 70 1019.9
20260830113255 67 177 0.0 0.0 0.00 0.00 0.00 69 1019.8
20260830112752 67 177 0.0 0.0 0.00 0.00 0.00 69 1019.9
20260830112248 67 182 0.0 0.0 0.00 0.00 0.00 70 1019.8
20260830111743 67 174 0.0 0.0 0.00 0.00 0.00 70 1019.9
20260830111239 67 181 0.0 0.0 0.00 0.00 0.00 70 1019.7
20260830110738 67 179 0.0 0.0 0.00 0.00 0.00 69 1019.8
20260830110235 67 171 0.0 0.0 0.00 0.00 0.00 69 1019.8
20260830105734 67 168 0.0 0.0 0.00 0.00 0.00 69 1020.0
20260830105230 67 176 1.0 1.0 0.00 0.00 0.00 68 1019.8
20260830104727 67 181 1.0 1.0 0.00 0.00 0.00 69 1019.9
20260830104223 67 177 1.0 1.0 0.00 0.00 0.00 69 1020.1
20260830103722 67 178 0.0 1.0 0.00 0.00 0.00 68 1020.1
20260830103218 67 177 0.0 0.0 0.00 0.00 0.00 68 1019.8
20260830102716 67 179 1.0 1.0 0.00 0.00 0.00 68 1019.9
20260830102212 67 174 0.0 1.0 0.00 0.00 0.00 68 1020.1
20260830101708 67 189 1.0 2.0 0.00 0.00 0.00 68 1020.1
20260830101203 67 174 0.0 0.0 0.00 0.00 0.00 68 1020.1
20260830100657 67 180 0.0 0.0 0.00 0.00 0.00 69 1020.2
20260830100156 67 172 0.0 0.0 0.00 0.00 0.00 68 1020.3
20260830095655 67 178 1.0 2.0 0.00 0.00 0.00 68 1019.9
20260830095152 67 188 1.0 1.0 0.00 0.00 0.00 68 1020.0
20260830094648 67 209 1.0 2.0 0.00 0.00 0.00 69 1020.2
20260830094143 67 183 1.0 1.0 0.00 0.00 0.00 69 1020.1
20260830093638 67 176 1.0 1.0 0.00 0.00 0.00 69 1020.2
20260830093135 67 184 1.0 1.0 0.00 0.00 0.00 69 1020.3
20260830092629 67 177 1.0 1.0 0.00 0.00 0.00 69 1020.2
20260830092127 67 178 1.0 1.0 0.00 0.00 0.00 69 1020.6
20260830091621 67 182 0.0 0.0 0.00 0.00 0.00 70 1020.3
20260830091120 67 182 0.0 0.0 0.00 0.00 0.00 69 1020.6
20260830090616 67 185 0.0 0.0 0.00 0.00 0.00 70 1020.3
20260830090111 67 185 0.0 0.0 0.00 0.00 0.00 70 1020.2
20260830085610 67 178 1.0 1.0 0.00 0.00 0.00 70 1020.5
20260830085106 67 177 1.0 1.0 0.00 0.00 0.00 70 1020.6
20260830084602 67 178 1.0 1.0 0.00 0.00 0.00 70 1020.6
20260830084101 67 174 1.0 1.0 0.00 0.00 0.00 70 1020.5
20260830083557 67 184 1.0 1.0 0.00 0.00 0.00 70 1020.8
20260830083057 67 184 0.0 0.0 0.00 0.00 0.00 70 1020.7
20260830082552 67 182 0.0 0.0 0.00 0.00 0.00 70 1020.8
20260830082048 67 179 0.0 0.0 0.00 0.00 0.00 71 1020.8
20260830081543 67 180 0.0 0.0 0.00 0.00 0.00 71 1020.8
20260830081042 67 182 0.0 0.0 0.00 0.00 0.00 71 1020.6
20260830080537 67 182 0.0 0.0 0.00 0.00 0.00 70 1020.7
20260830080033 67 180 1.0 1.0 0.00 0.00 0.00 70 1020.5
20260830075532 67 171 0.0 1.0 0.00 0.00 0.00 70 1020.6
20260830075028 67 177 0.0 0.0 0.00 0.00 0.00 70 1020.5
20260830074524 67 184 0.0 0.0 0.00 0.00 0.00 70 1020.8
20260830074019 67 176 0.0 0.0 0.00 0.00 0.00 70 1020.8
20260830073515 67 180 0.0 1.0 0.00 0.00 0.00 70 1020.5
20260830073010 67 182 1.0 1.0 0.00 0.00 0.00 70 1020.6
20260830072506 67 187 1.0 1.0 0.00 0.00 0.00 70 1020.8
20260830072005 67 199 1.0 2.0 0.00 0.00 0.00 70 1020.6
20260830071501 67 185 2.0 2.0 0.00 0.00 0.00 70 1020.7
20260830070958 67 187 1.0 1.0 0.00 0.00 0.00 70 1020.7
20260830070454 67 176 1.0 2.0 0.00 0.00 0.00 70 1020.8
20260830065953 67 186 1.0 2.0 0.00 0.00 0.00 70 1020.8
20260830065453 67 178 1.0 1.0 0.00 0.00 0.00 70 1020.7
20260830064950 68 180 1.0 1.0 0.00 0.00 0.00 70 1021.1
20260830064446 68 185 1.0 1.0 0.00 0.00 0.00 69 1020.6
20260830063941 68 189 0.0 0.0 0.00 0.00 0.00 69 1020.8
20260830063441 68 200 0.0 0.0 0.00 0.00 0.00 69 1020.8
20260830062940 68 192 1.0 1.0 0.00 0.00 0.00 69 1020.8
20260830062439 68 188 1.0 1.0 0.00 0.00 0.00 69 1020.8
20260830061934 68 189 1.0 1.0 0.00 0.00 0.00 69 1020.6
20260830061429 68 187 1.0 1.0 0.00 0.00 0.00 69 1020.7
20260830060926 68 189 0.0 0.0 0.00 0.00 0.00 69 1021.0
20260830060422 68 181 0.0 0.0 0.00 0.00 0.00 69 1020.8
20260830055917 68 194 0.0 0.0 0.00 0.00 0.00 69 1020.8
20260830055413 68 174 0.0 0.0 0.00 0.00 0.00 68 1020.6
20260830054908 68 190 0.0 0.0 0.00 0.00 0.00 69 1020.8
20260830054404 68 187 0.0 0.0 0.00 0.00 0.00 68 1021.1
20260830053859 68 184 0.0 0.0 0.00 0.00 0.00 69 1020.8
20260830053354 68 191 0.0 0.0 0.00 0.00 0.00 68 1021.0
20260830052854 68 180 1.0 1.0 0.00 0.00 0.00 69 1021.2
20260830052349 68 185 1.0 1.0 0.00 0.00 0.00 69 1020.8
20260830051845 68 178 1.0 1.0 0.00 0.00 0.00 69 1020.6
20260830051340 68 183 1.0 1.0 0.00 0.00 0.00 69 1020.8
20260830050838 68 177 0.0 1.0 0.00 0.00 0.00 69 1020.7
20260830050334 68 187 0.0 0.0 0.00 0.00 0.00 69 1021.1
20260830045832 68 177 0.0 0.0 0.00 0.00 0.00 69 1020.8
20260830045327 68 178 0.0 0.0 0.00 0.00 0.00 69 1021.0
20260830044826 68 177 0.0 0.0 0.00 0.00 0.00 69 1021.1
20260830044323 68 170 0.0 0.0 0.00 0.00 0.00 69 1021.1
20260830043817 68 171 0.0 0.0 0.00 0.00 0.00 69 1020.7
20260830043312 68 181 0.0 0.0 0.00 0.00 0.00 68 1021.0
20260830042809 68 185 0.0 0.0 0.00 0.00 0.00 68 1021.0
20260830042306 68 177 0.0 0.0 0.00 0.00 0.00 68 1021.1
20260830041803 68 175 0.0 0.0 0.00 0.00 0.00 68 1021.2
20260830041256 68 174 0.0 0.0 0.00 0.00 0.00 68 1021.0
20260830040752 68 179 0.0 0.0 0.00 0.00 0.00 68 1021.0
20260830040249 68 175 0.0 0.0 0.00 0.00 0.00 68 1021.0
20260830035746 68 192 0.0 0.0 0.00 0.00 0.00 68 1021.1
20260830035241 68 179 0.0 0.0 0.00 0.00 0.00 68 1021.0
20260830034736 68 178 0.0 0.0 0.00 0.00 0.00 68 1021.0
20260830034236 68 179 0.0 0.0 0.00 0.00 0.00 68 1020.7
20260830033733 68 177 0.0 0.0 0.00 0.00 0.00 68 1021.1
20260830033232 68 178 0.0 0.0 0.00 0.00 0.00 67 1021.0
20260830032727 68 180 0.0 0.0 0.00 0.00 0.00 67 1020.7
20260830032221 68 177 0.0 0.0 0.00 0.00 0.00 68 1020.8
20260830031717 67 178 0.0 0.0 0.00 0.00 0.00 68 1020.7
20260830031212 67 177 0.0 0.0 0.00 0.00 0.00 68 1020.7
20260830030708 67 182 0.0 0.0 0.00 0.00 0.00 68 1021.0
20260830030203 67 176 0.0 0.0 0.00 0.00 0.00 68 1020.8
20260830025702 68 172 0.0 0.0 0.00 0.00 0.00 68 1021.1
20260830025156 67 172 0.0 0.0 0.00 0.00 0.00 68 1020.8
20260830024651 67 175 0.0 0.0 0.00 0.00 0.00 68 1021.0
20260830024150 67 173 0.0 0.0 0.00 0.00 0.00 69 1021.0
20260830023648 67 177 0.0 0.0 0.00 0.00 0.00 69 1021.2
20260830023143 67 175 0.0 0.0 0.00 0.00 0.00 69 1021.2
20260830022643 67 172 0.0 0.0 0.00 0.00 0.00 69 1021.1